Hourly Weather Roundup
Issued by NWS Central Illinois

Home | Current Version | Previous Version | Text Only | Print | Product List | Glossary On
Versions: 1 2 3 4 5 6 7 8 9 10 11 12 13 14 15 16 17 18 19 20 21 22 23 24 25 26 27 28 29 30 31 32 33 34 35 36 37 38 39 40 41 42 43 44 45 46 47 48 49 50
000
NZUS43 KILX 260010
HWRILX

Area Weather Roundup
National Weather Service Lincoln IL
700 PM CDT SUN JUN 25 2017

NOTE:  "FAIR" indicates few or no clouds below 12,000 feet, with
       no sigificant weather and/or obstructions to visibility.


CITY           SKY/WX    TMP DP  RH WIND       PRES   REMARKS
Bloomington    MOSUNNY   70  48  45 NW17      30.16R
6HR MIN TEMP:  70; 6HR MAX TEMP:  73;

Champaign      SUNNY     71  44  37 W13       30.14R
6HR MIN TEMP:  71; 6HR MAX TEMP:  77;

Danville       SUNNY     71  46  40 W14G22    30.10S
6HR MIN TEMP:  71; 6HR MAX TEMP:  75;

Decatur        MOSUNNY   72  43  35 NW16      30.15S
6HR MIN TEMP:  71; 6HR MAX TEMP:  76;

Effingham      SUNNY     76  48  36 NW14G20   30.16R
6HR MIN TEMP:  76; 6HR MAX TEMP:  81;

Flora          SUNNY     80  46  30 W14G21    30.14R
Galesburg      MOSUNNY   70  46  42 W13G22    30.17S
6HR MIN TEMP:  68; 6HR MAX TEMP:  72;

Jacksonville   MOSUNNY   72  44  37 W13       30.18S
6HR MIN TEMP:  71; 6HR MAX TEMP:  76;

Lacon          SUNNY     68  49  50 NW13      30.14S
6HR MIN TEMP:  68; 6HR MAX TEMP:  72;

Lawrenceville  SUNNY     78  46  32 NW15      30.12S
6HR MIN TEMP:  78; 6HR MAX TEMP:  81;

Litchfield     SUNNY     73  46  38 NW14G20   30.18R
6HR MIN TEMP:  73; 6HR MAX TEMP:  77;

$$


CITY           SKY/WX    TMP DP  RH WIND       PRES   REMARKS
Lincoln        MOSUNNY   73  46  38 W8        30.16R
6HR MIN TEMP:  73; 6HR MAX TEMP:  76;

Macomb         MOSUNNY   71  44  37 NW13      30.20R
6HR MIN TEMP:  69; 6HR MAX TEMP:  73;

Mattoon        MOSUNNY   73  49  42 NW14      30.14R
6HR MIN TEMP:  73; 6HR MAX TEMP:  77;

Mt Carmel AP   SUNNY     76  47  35 NW8G17    30.12S
6HR MIN TEMP:  76; 6HR MAX TEMP:  80;

Olney-Noble AP SUNNY     76  48  38 NW12G20   30.13S
Paris AP       SUNNY     72  48  42 NW14G20   30.14R
6HR MIN TEMP:  72; 6HR MAX TEMP:  76;

Peoria         MOSUNNY   71  48  43 NW10      30.16R
6HR MIN TEMP:  69; 6HR MAX TEMP:  74;

Pontiac        MOSUNNY   70  49  48 W21G26    30.15R
6HR MIN TEMP:  70; 6HR MAX TEMP:  73;

Rantoul        MOSUNNY   73  47  39 NW16      30.13S
6HR MIN TEMP:  72; 6HR MAX TEMP:  77;

Robinson       SUNNY     74  47  38 NW12      30.13S
6HR MIN TEMP:  74; 6HR MAX TEMP:  78;

Springfield    SUNNY     74  47  38 W10       30.17R
6HR MIN TEMP:  74; 6HR MAX TEMP:  79;

Taylorville    MOSUNNY   72  46  40 NW13G18   30.17R
6HR MIN TEMP:  71; 6HR MAX TEMP:  77;

$$

...REGIONAL REPORTS...


CITY           SKY/WX    TMP DP  RH WIND       PRES   REMARKS
Chicago O`Hare PTSUNNY   67  47  48 W21       30.08R
Kankakee       MOSUNNY   70  46  43 W16G24    30.12S
Moline         MOSUNNY   70  48  45 NW8       30.15S
Mount Sterling MOSUNNY   71  46  40 NW12G18   30.18S
Mount Vernon   SUNNY     79  48  33 W5        30.14S
Pittsfield     SUNNY     73  47  38 NW9       30.20R
Quincy         SUNNY     72  44  36 NW14      30.19S
Rockford       PTSUNNY   67  50  54 W17       30.13R
$$


CITY           SKY/WX    TMP DP  RH WIND       PRES   REMARKS
Burlington     MOSUNNY   72  44  36 NW9       30.17S
Cedar Rapids   SUNNY     69  43  38 NW18G25   30.15S
Des Moines     MOSUNNY   73  42  32 NW12      30.19F
Kirksville     SUNNY     72  44  36 NW12      30.22S
Ottumwa        SUNNY     72  43  35 W12       30.19S
St Louis       MOSUNNY   79  47  32 NW14G23   30.17R
$$


CITY           SKY/WX    TMP DP  RH WIND       PRES   REMARKS
Terre Haute    MOSUNNY   73  46  38 NW7       30.12S
Evansville     SUNNY     79  46  31 W9G18     30.13S
Indianapolis   MOSUNNY   72  44  36 W14       30.11R
Lafayette      SUNNY     69  47  45 W14G22    30.10R
Madison        PTSUNNY   60  55  83 VRB6      30.09R
Milwaukee      MOSUNNY   68  47  46 W18       30.06R
$$






USA.gov is the U.S. government's official web portal to all federal, state and local government web resources and services.